Terug naar catalogus

ATLAS CENTAUR R/B

ActiefGTO
NORAD 10779·ROCKET BODY·🇺🇸 United States

Gelanceerd Mar 31, 1978 vanaf Cape Canaveral Space Force Station

Loading…

TLE

VerouderdSource: Space-Track

Epoch: Sep 11, 2026, 06:13 UTC

1 10779U 78035B   26254.25963629  .00000061  00000-0  20278-2 0  9996
2 10779  22.1245 337.8652 7178734 297.1638   8.8214  2.22755125393817

Volg ATLAS CENTAUR R/B in realtime met AllMySat

Download on the App Store